星链-11191 (STARLINK-11191)

导读

STARLINK-11191是美国太空探索技术公司SpaceX于2024年8月10日发射的星链(Starlink)系列低轨宽带互联网卫星,隶属于SpaceX打造的全球卫星互联网星座。作为星链组网进程中的一员,它运行于近地轨道,主要为全球尤其是偏远、网络基础设施薄弱区域提供高速低延迟的宽带互联网接入服务,助力SpaceX完成大规模卫星星座组网布局,推动全球互联网覆盖范围的拓展与连接性能提升。

基本信息
目录编号:
60410
目录名称:
STARLINK-11191
国际标识:
2024-141N
轨道中心:
EARTH
卫星名称:
星链-11191 (STARLINK-11191)
卫星全名:
星链-11191 (STARLINK-11191)
卫星状态:
在轨 (已飞行762 天)
发射日期:
2024-08-10 UTC
国别 :
美国 (US)
星等 :
--
该卫星已列入 空间交会检测服务 Space Conjunction Data Service (SCDS) ,当前飞行风险评估等级: 无高风险
轨道信息
数据来源 国际轨道数据
星历时间: 2026-09-10T14:19:13+0800
1天前
查看轨道信息
半长轴: 6737.873km
偏心率: 0.0000966
轨道倾角: 53.157°
近地点辐角 77.713°
升交点赤经 256.275°
平近点角 282.400°
近地点: 359.085km
远地点: 360.387km
周期: 91.737分钟
每日圈数: 15.69707
详细信息
卫星平台:
Starlink v2.0 mini
运营商:
太空探索技术公司
运营商所在国:
美国
制造商(研发单位):
太空探索技术公司
制造商所在国:
美国
使用方式:
暂无
卫星简介
星链(Starlink)计划是由太空探索技术公司(SpaceX)提出的一个巨型低轨卫星互联网星座项目,计划在2019年至2024年间在太空搭建由约1.2万颗卫星组成的“星链”网络,其中1584颗将部署在地球上空550千米处的近地轨道,并从2020年开始工作。该卫星仍在工作。
2D轨道图
3D轨道图
轨道高度分析图
轨道倾角分析图
轨道综合分析图
查看轨道综合分析图
与全量物体交会距离演化趋势
与全量物体交会风险概率演化趋势